Location: Goettingen
(51.5300°N, 9.9433°E)
Time: 18:57:02
(UTC+02:00)

ISS - Visible Passes

Search period start: 26 March 2017 00:00
Search period end: 05 April 2017 01:00
Orbit: 399 x 409 km, 51.6° (Epoch: 27 March)

Date Brightness Start Highest point End Pass type
(mag) Time Alt. Az. Time Alt. Az. Time Alt. Az.
28 Mar -2.2 20:59:33 10° S 21:01:50 18° SE 21:01:52 18° SE visible
29 Mar -3.2 21:42:23 10° SW 21:45:00 40° S 21:45:00 40° S visible
30 Mar -2.9 20:50:18 10° SSW 20:53:12 30° SSE 20:55:12 16° E visible
30 Mar -2.1 22:26:09 10° WSW 22:27:53 28° WSW 22:27:53 28° WSW visible
31 Mar -3.9 21:33:47 10° WSW 21:37:01 67° SSE 21:37:53 43° E visible
31 Mar -0.8 23:10:12 10° W 23:10:33 12° W 23:10:33 12° W visible
01 Apr -3.5 20:41:28 10° SW 20:44:38 49° SSE 20:47:46 10° E visible
01 Apr -3.3 22:17:45 10° W 22:20:25 56° W 22:20:25 56° W visible
02 Apr -3.9 21:25:17 10° W 21:28:33 86° S 21:30:10 28° E visible
02 Apr -1.3 23:01:46 10° W 23:02:50 19° W 23:02:50 19° W visible
03 Apr -3.8 20:32:51 10° WSW 20:36:06 72° SSE 20:39:22 10° E visible
03 Apr -3.9 22:09:18 10° W 22:12:30 85° WNW 22:12:30 85° WNW visible
04 Apr -3.9 21:16:49 10° W 21:20:05 86° N 21:22:07 21° E visible
04 Apr -1.7 22:53:17 10° W 22:54:46 24° W 22:54:46 24° W visible
